Location: Starlight Observatory
(38.4029°N, 85.8936°W)
Time: 11:40:37
(UTC-05:00)

Iridium 84 - Visible Passes

Search period start: 21 December 2014 00:00
Search period end: 31 December 2014 00:00
Orbit: 776 x 779 km, 86.4° (Epoch: 20 December)

Date Brightness Start Highest point End Pass type
(mag) Time Alt. Az. Time Alt. Az. Time Alt. Az.
21 Dec 5.6 07:05:05 10° N 07:10:19 88° E 07:15:31 10° S visible
21 Dec 6.7 18:21:20 10° SE 18:25:03 20° E 18:28:36 11° NE visible
21 Dec 6.6 20:00:31 10° SSW 20:05:25 42° W 20:09:10 16° NNW visible
22 Dec 6.6 06:31:44 10° N 06:36:45 46° E 06:41:43 10° SSE visible
22 Dec 5.5 19:26:37 10° S 19:31:49 79° W 19:37:03 10° N visible
23 Dec 7.7 05:58:47 10° NNE 06:03:02 25° E 06:07:16 10° SE visible
23 Dec 5.6 18:53:17 10° SSE 18:58:20 55° E 19:03:25 10° NNE visible
23 Dec 8.2 20:36:20 10° WSW 20:39:24 16° WNW 20:42:29 10° NW visible
24 Dec 8.4 05:26:41 10° NE 05:29:12 13° ENE 05:31:42 10° ESE visible
24 Dec 5.5 07:05:13 10° N 07:10:23 64° W 07:15:30 10° S visible
24 Dec 6.3 18:20:33 10° SE 18:24:59 29° E 18:29:25 10° NNE visible
24 Dec 7.4 20:01:08 10° SW 20:05:36 29° W 20:10:06 10° NNW visible
25 Dec 5.9 06:31:40 10° N 06:36:52 69° E 06:42:02 10° S visible
25 Dec 6.2 19:26:51 10° SSW 19:31:55 54° W 19:37:02 10° N visible
26 Dec 7.0 05:58:27 10° NNE 06:03:15 36° E 06:08:00 10° SSE visible
26 Dec 5.4 18:53:11 10° S 18:58:22 81° E 19:03:35 10° N visible
26 Dec 8.6 20:38:56 10° W 20:39:43 10° WNW 20:40:30 10° WNW visible
27 Dec 8.0 05:25:44 10° NNE 05:29:29 20° ENE 05:33:13 10° ESE visible
27 Dec 5.9 07:05:29 10° NNW 07:10:23 43° W 07:15:16 10° SSW visible
27 Dec 5.9 18:20:04 10° SSE 18:24:56 42° E 18:29:49 10° NNE visible
27 Dec 8.0 20:02:04 10° SW 20:05:49 20° WNW 20:09:36 10° NNW visible
28 Dec 8.6 04:55:05 10° ENE 04:55:35 10° ENE 04:56:04 10° ENE visible
28 Dec 5.4 06:31:43 10° N 06:36:57 82° W 06:42:08 10° S visible
28 Dec 7.0 19:27:18 10° SSW 19:32:04 37° W 19:36:52 10° NNW visible
29 Dec 6.3 05:58:17 10° N 06:03:23 53° E 06:08:27 10° SSE visible
29 Dec 5.8 18:53:16 10° S 18:58:26 70° W 19:03:38 10° N visible
30 Dec 7.4 05:25:14 10° NNE 05:29:42 28° E 05:34:09 10° SE visible
30 Dec 6.3 07:05:52 10° NNW 07:10:20 30° W 07:14:47 10° SW visible
30 Dec 5.5 18:19:49 10° SSE 18:24:56 63° E 18:30:04 10° N visible
30 Dec 8.4 20:03:31 10° WSW 20:06:05 14° WNW 20:08:40 10° NW visible
